Location: *
(18.9386°S, 47.5214°E)
Time: 18:00:52
(UTC+00:00)

Daily predictions for brighter satellites

Satellite Brightness Start Highest point End
(mag) Time Altitude Azimuth Time Altitude Azimuth Time Altitude Azimuth
Cosmos 2278 Rocket 3.7 15:05:13 10° NE 15:08:28 16° E 15:11:44 10° ESE
Okean-O 3.3 15:05:32 10° SE 15:09:35 33° E 15:13:34 10° NNE
SWIFT 2.4 15:05:29 10° W 15:09:43 72° S 15:13:59 10° E
Aurora 2 Rocket 3.5 15:08:16 10° NNW 15:10:46 21° NNE 15:13:34 10° E
Cosmos 1844 3.8 15:05:00 10° NNW 15:10:47 89° WSW 15:16:37 10° SSE
STARLINK-1168 3.0 15:07:50 10° NNW 15:11:11 78° NE 15:14:35 10° SE
GPS 2-14 Rocket1 2.7 15:07:27 10° WNW 15:11:25 79° N 15:15:30 10° E
STARLINK-1164 3.0 15:08:38 10° NNW 15:11:59 81° NE 15:15:22 10° SE
Cosmos 1733 4.3 15:08:49 10° SSW 15:12:32 50° W 15:16:12 10° NNW
STARLINK-1182 3.0 15:09:26 10° NW 15:12:48 83° NE 15:16:12 10° SE
Cosmos 2098 Rocket 4.1 15:06:51 10° N 15:12:55 73° E 15:20:08 10° S
Cosmos 1242 Rocket 2.8 15:10:03 10° N 15:13:30 47° E 15:17:02 10° SSE
SL-24 R/B - RUBIN 2 3.8 15:10:39 10° S 15:14:49 47° ESE 15:19:17 10° NE
STARLINK-1172 3.0 15:11:27 10° NW 15:14:49 88° ENE 15:18:13 10° SE
STARLINK-1145 3.1 15:12:18 10° NW 15:15:41 89° SW 15:19:06 10° SE
STARLINK-1161 3.1 15:13:10 10° NW 15:16:33 86° WSW 15:19:59 10° SE
STARLINK-1160 3.1 15:14:04 10° NW 15:17:27 84° SW 15:20:53 10° SE
STARLINK-1170 3.8 15:17:19 10° NW 15:20:51 61° SW 15:24:26 10° SSE
Cosmos 1943 3.3 15:15:17 10° SSW 15:20:56 87° WNW 15:26:33 10° NNE
Delta 2 Rocket 4.1 15:16:10 10° WSW 15:22:16 58° SSE 15:27:44 12° E
Cosmos 371 Rocket 4.4 15:19:10 10° NNE 15:22:54 22° E 15:26:38 10° SE
Cosmos 1470 2.7 15:19:35 10° S 15:23:28 67° E 15:27:17 10° NNE
In-Cosmos 22 4.0 15:19:08 10° N 15:24:26 70° E 15:29:43 10° SSE
Meteor 2-21 4.5 15:20:22 10° N 15:26:24 63° E 15:32:32 10° SSE
Cosmos 1544 Rocket 4.2 15:22:52 10° SSW 15:27:10 59° W 15:31:27 10° N
Cosmos 1707 4.4 15:25:51 10° NNW 15:29:30 39° W 15:33:13 10° SSW
Delta 7925 Rocket 4.5 15:23:31 10° WNW 15:30:21 80° NNE 15:38:15 14° ESE
FALCON 9 R/B 3.1 15:16:04 10° WNW 15:30:55 69° SW 15:35:16 10° SE
Intelsat 5-2 Rocket 2.1 15:34:42 10° WNW 15:37:00 57° NNE 15:38:36 22° E
FUSE 3.9 15:32:09 10° WNW 15:37:33 81° NNE 15:41:35 18° ESE
Meteor 1-24 Rocket 4.4 15:35:37 10° NNE 15:39:58 26° E 15:44:24 10° SE
Cosmos 1271 Rocket 3.1 15:38:04 10° NNW 15:41:49 65° W 15:45:38 10° S
Cosmos 1674 2.7 15:38:15 10° N 15:41:52 51° E 15:45:31 10° SSE
Intelsat 5-1 Rocket 3.1 15:39:21 10° NNW 15:41:57 25° NE 15:43:57 19° ENE
Cosmos 1452 Rocket 3.5 15:37:14 10° N 15:42:25 62° ENE 15:47:39 10° SSE
NOSS 3-1 (C) 4.5 15:35:08 10° N 15:43:39 50° ENE 15:51:49 10° SE
Cosmos 1892 Rocket 3.9 15:40:22 10° NNE 15:44:32 40° E 15:48:43 10° SSE
Meteor 2-5 Rocket 3.9 15:39:18 10° NNE 15:44:33 45° E 15:49:52 10° SSE
STARLINK-1159 4.3 15:42:43 10° N 15:46:31 35° NE 15:48:04 26° E
STARLINK-1141 4.3 15:42:50 10° N 15:46:35 33° ENE 15:48:00 26° E
NOAA 11 4.2 15:42:16 10° SSE 15:47:38 58° E 15:52:57 10° N
CZ-2C R/B 4.0 15:45:53 10° NNE 15:50:11 43° ESE 15:54:28 10° S
STARLINK-1171 4.1 15:47:34 10° NNW 15:51:29 40° NE 15:52:51 30° E
STARLINK-1140 4.1 15:47:41 10° NNW 15:51:32 38° NE 15:52:48 30° E
Cosmos 332 Rocket 4.3 15:48:03 10° NNE 15:52:29 35° E 15:55:33 18° SE
CZ-2D R/B 3.4 15:49:11 10° SSE 15:52:59 49° E 15:56:41 10° N
Cosmos 614 Rocket 3.9 15:49:15 10° S 15:54:26 65° ESE 15:59:35 10° NNE
Meteor 2-15 Rocket 4.5 15:48:21 10° S 15:54:31 86° W 16:00:36 10° N
Cosmos 407 Rocket 3.6 15:49:36 10° S 15:54:48 52° ESE 15:59:52 10° NNE
Skynet4D Del rocket 4.2 15:49:35 10° W 15:55:07 50° NNW 15:58:59 17° NE
STARLINK-1155 3.9 15:52:27 10° NNW 15:56:26 46° NE 15:57:38 35° E
STARLINK-1156 3.9 15:52:33 10° NNW 15:56:30 44° NE 15:57:35 36° E
Delta 168 4.3 15:53:12 10° NNW 15:56:40 27° NNE 15:57:51 24° NE
Cosmos 1606 Rocket 4.3 15:53:00 10° SSE 15:56:33 31° ESE 15:56:33 31° ESE
STARLINK-1166 3.7 15:57:21 10° NNW 16:01:24 53° NE 16:02:27 41° ESE
STARLINK-1148 3.8 15:57:26 10° NNW 16:01:27 51° NE 16:02:23 42° E
Cosmos 2228 4.1 15:59:45 10° SSE 16:02:08 26° SE 16:02:08 26° SE
KORONAS-FOTON 3.9 16:00:21 10° N 16:04:07 76° W 16:07:56 10° S
STARLINK-1165 3.6 16:02:15 10° NNW 16:06:22 62° NE 16:07:14 49° ESE
STARLINK-1158 3.6 16:02:21 10° NNW 16:06:25 59° NE 16:07:09 50° E
CZ-4 R/B 1.7 16:03:01 10° S 16:07:03 64° WSW 16:10:57 10° NNW
USA 81 4.0 16:02:07 10° N 16:07:24 89° W 16:12:44 10° S
Lacrosse 4 Rocket 4.2 16:06:19 10° WNW 16:09:19 19° WSW 16:12:18 10° SSW
Meteor 1-16 Rocket 3.9 16:05:41 10° S 16:11:03 77° E 16:16:20 10° N
STARLINK-1169 3.5 16:07:12 10° NNW 16:11:21 72° NE 16:12:01 58° ESE
Palapa 6 Rocket 3.9 16:04:45 10° WSW 16:11:30 64° S 16:13:31 40° ESE
Okean 1-7 Rocket 3.4 16:07:40 10° N 16:12:04 82° E 16:16:35 10° S
DELTA-4 R/B 4.2 15:44:46 10° W 16:12:46 62° N 16:15:26 33° ENE
Fermi 3.9 16:11:30 10° W 16:15:32 62° SSW 16:16:02 56° SSE
STARLINK-1178 3.5 16:12:10 10° NW 16:16:19 83° NE 16:16:49 68° SE
Cosmos 1939 Rocket 3.3 16:13:15 10° S 16:17:20 61° WSW 16:21:19 10° NNW
Cosmos 1726 2.5 16:17:22 10° SSW 16:21:06 62° W 16:24:46 10° N
STARLINK-1120 3.5 16:17:06 10° NW 16:21:16 86° SW 16:21:35 76° SSE
Meteor 2-10 4.4 16:17:30 10° SSW 16:22:32 62° W 16:27:38 10° N
MOS 1 Rocket 3.6 16:22:49 54° ENE 16:23:22 57° ESE 16:28:29 10° S
Cosmos 1745 Rocket 4.3 16:18:11 10° NNW 16:24:16 66° W 16:30:23 10° S
STARLINK-1131 3.7 16:22:08 10° NW 16:26:17 75° SW 16:26:25 74° SSW
CZ-2C R/B 2.5 16:29:29 53° NE 16:30:42 74° ESE 16:36:08 10° S
STARLINK-1190 3.9 16:27:08 10° NW 16:31:12 65° WSW 16:31:12 65° WSW
SL-24 R/B 4.3 16:32:14 56° W 16:32:14 56° W 16:36:03 10° SSW
USA 215 4.1 16:27:24 10° SSE 16:33:38 46° SW 16:39:50 10° WNW
Cosmos 1023 Rocket 4.5 16:28:19 10° SSW 16:33:39 82° WNW 16:35:37 40° N
ATLAS 5 CENTAUR R/B 4.4 16:32:51 10° WSW 16:35:08 14° WNW 16:37:19 10° NW
YAOGAN 1 4.0 16:32:31 10° S 16:36:31 36° WSW 16:40:30 10° NW
Nadezhda 1 Rocket 3.9 16:31:57 10° S 16:38:19 78° E 16:44:42 10° N
SWIFT 3.9 16:47:26 10° W 16:49:56 33° W 16:49:56 33° W
Cosmos 2278 Rocket 3.4 16:46:48 10° NW 16:52:06 41° WSW 16:57:27 10° S
NOSS 3-1 (A) 4.3 16:55:42 10° NNW 17:04:39 75° WSW 17:09:02 33° SSE
Atlas Centaur 2 4.4 17:05:35 10° NNW 17:06:00 12° NNW 17:06:00 12° NNW
Ariane H10+ 4.4 17:09:20 10° NW 17:10:54 13° NW 17:10:54 13° NW
ATLAS 3B CENTAUR R/B 4.3 23:47:51 36° SE 23:47:51 36° SE 23:56:55 10° ESE
